Terminal Aerodrome Forecast
Issued by NWS Spokane, WA

Home | Current Version | Previous Version | Text Only | Print | Product List | Glossary On
Versions: 1 2 3 4 5 6 7 8 9 10 11 12 13 14 15 16 17 18 19 20 21 22 23 24 25 26 27 28 29 30
000
FTUS46 KOTX 211739
TAFLWS
TAF
KLWS 211739Z 2118/2218 31006KT P6SM SCT080 SCT200
     FM220700 10003KT P6SM VCSH SCT060 SCT200=

USA.gov is the U.S. government's official web portal to all federal, state and local government web resources and services.